Terminal Aerodrome Forecast
Issued by NWS Twin Cities, MN

Home | Current Version | Previous Version | Graphics & Text | Print | Product List | Glossary On
Versions: 1 2 3 4 5 6 7 8 9 10 11 12 13 14 15 16 17 18 19 20 21 22 23 24 25 26 27 28 29 30 31
000
FTUS43 KMPX 171459 AAB
TAFMSP
TAF AMD
KMSP 171459Z 1715/1818 24006KT 2SM -SN BR FEW010 OVC035
     FM171530 25007KT P6SM SCT050 BKN200
     FM171900 29011KT P6SM FEW200
     FM180100 28007KT P6SM SKC
     FM180800 12005KT P6SM BKN100
     FM181500 12013G21KT P6SM SCT025 OVC080=

USA.gov is the U.S. government's official web portal to all federal, state and local government web resources and services.